[[{"header":{"parameterUnit":"m.s-1","parameterCategory":1,"la1":30.2991,"la2":30.254,"lo1":-89.0895,"lo2":-89.0444,"dy":0.0017,"dx":0.0017,"nx":28,"ny":28,"refTime":"2025-06-02T21:00:00:Z","depth":0,"parameterNumber":2,"parameterNumberName":"U-component_of_WINDS"},"data":[0,0,0,0,0,0,0,0,0,0,0,0,0,0,0,0,0,0,0,0,0,0,0,0,0,0,0,0,0,0,0,0,0,0,0,0,0,0,0,0,0,0,0,0,0,0,0,0,0,0,0,0,0,0,0,0,0,0,-5.1037,-5.1037,0,-5.107,-5.1071,-5.1071,-5.1009,-5.1007,-5.1005,-5.1003,-5.1037,-5.104,-5.1043,0,0,0,0,0,0,0,0,0,0,0,0,0,-5.0922,-5.0924,-5.1037,-5.1037,-5.1038,-5.107,-5.1071,-5.1071,-5.101,-5.1007,-5.1005,-5.1002,-5.1036,-5.1039,-5.1043,0,0,0,0,0,0,0,0,0,0,0,0,0,-5.0965,-5.0925,-5.1037,-5.1011,-5.1009,-5.107,-5.1071,-5.1071,-5.101,-5.1007,-5.1004,-5.1001,-5.1035,-5.1039,-5.1043,-5.1131,0,0,-5.1056,-5.1058,0,0,0,0,0,0,0,0,-5.0963,-5.0969,-5.1014,-5.1013,-5.1011,-5.1032,-5.1042,-5.1091,-5.1011,-5.101,-5.1003,-5.1,-5.1038,-5.1042,-5.1055,-5.1132,-5.1134,-5.1056,-5.1059,-5.1061,-5.1062,0,0,0,0,0,0,0,-5.096,-5.0968,-5.105,-5.1015,-5.1013,-5.0998,-5.1001,-5.1051,-5.1041,-5.101,-5.1005,-5.101,-5.1036,-5.1051,-5.1055,-5.1134,-5.1056,-5.106,-5.1063,-5.1064,-5.1287,-5.129,0,0,0,0,0,0,-5.096,-5.0965,-5.1049,-5.1051,-5.0979,-5.1003,-5.1006,-5.1029,-5.104,-5.1039,-5.1013,-5.1007,-5.1045,-5.105,-5.1056,-5.1159,-5.1061,-5.1065,-5.1067,-5.1284,-5.1288,-5.1291,0,0,0,0,0,0,-5.0958,-5.0968,-5.1047,-5.1007,-5.1016,-5.1008,-5.1034,-5.1031,-5.1045,-5.1042,-5.104,-5.1029,-5.1043,-5.105,-5.1113,-5.1159,-5.1067,-5.107,-5.128,-5.1285,-5.129,-5.1366,0,0,0,0,0,0,-5.0955,-5.0967,-5.1,-5.1008,-5.1018,-5.1103,-5.1037,-5.1034,-5.1053,-5.1046,-5.1057,-5.1056,-5.1041,-5.1107,-5.1117,-5.1163,-5.1074,-5.1275,-5.1282,-5.1288,-5.1359,-5.1373,-5.1385,0,0,0,0,0,-5.0951,-5.1019,-5.1002,-5.1012,-5.1059,-5.1106,-5.1112,-5.1093,-5.1057,-5.1089,-5.1088,-5.1056,-5.1154,-5.1114,-5.1125,-5.1173,-5.1272,-5.128,-5.1287,-5.1353,-5.137,-5.1385,0,0,0,0,0,0,-5.1015,-5.102,-5.1,-5.1074,-5.109,-5.1096,-5.1136,-5.1112,-5.1138,-5.1131,-5.1107,-5.111,-5.1178,-5.1182,-5.1138,-5.1259,-5.1207,-5.1217,-5.1253,-5.1269,-5.1282,-5.1278,-5.1077,0,0,0,0,0,-5.1039,-5.1077,-5.1079,-5.1143,-5.1153,-5.1144,-5.1163,-5.1148,-5.1164,-5.117,-5.1173,-5.119,-5.1225,-5.1248,-5.1279,-5.1361,-5.1363,-5.14,-5.1413,-5.1424,-5.1432,-5.1476,-5.1492,-5.1316,-5.1316,-5.1316,0,0,-5.1086,-5.1093,-5.1118,-5.1157,-5.1167,-5.1208,-5.1149,-5.1194,-5.1224,-5.1177,-5.1236,-5.124,-5.1257,-5.133,-5.1362,-5.1336,-5.1482,-5.1433,-5.1442,-5.1444,-5.1486,-5.1502,-5.1517,-5.1322,-5.1321,-5.132,0,0,-5.1192,-5.1202,-5.1257,-5.127,-5.1288,-5.1282,-5.1296,-5.1306,-5.1307,-5.1366,-5.1333,-5.1369,-5.1428,-5.1442,-5.1457,-5.1574,-5.1545,-5.1586,-5.1651,-5.1695,-5.1709,-5.1721,-5.1762,-5.1777,-5.1594,-5.1595,-5.1595,0,-5.1248,-5.1307,-5.1289,-5.1336,-5.1354,-5.1316,-5.1372,-5.1386,-5.1413,-5.1427,-5.1398,-5.1473,-5.1482,-5.1558,-5.1587,-5.1601,-5.1616,-5.1582,-5.1708,-5.172,-5.1731,-5.177,-5.1785,-5.1599,-5.1599,-5.1598,-5.1598,0,-5.1376,-5.1417,-5.146,-5.1488,-5.1512,-5.1564,-5.1554,-5.158,-5.1564,-5.1562,-5.1624,-5.1635,-5.1668,-5.1686,-5.167,-5.1761,-5.1743,-5.1712,-5.1658,-5.1753,-5.1789,-5.1803,-5.1606,-5.1604,-5.1603,-5.1602,0,0,-5.1519,-5.1539,-5.1555,-5.1568,-5.1587,-5.1619,-5.1671,-5.1704,-5.1727,-5.1749,-5.1791,-5.1845,-5.1816,-5.1834,-5.182,-5.1859,-5.195,-5.1822,-5.1822,-5.1844,-5.205,-5.2072,-5.209,-5.1933,-5.1936,-5.1938,-5.2048,0,-5.1624,-5.1711,-5.1698,-5.1782,-5.1821,-5.1788,-5.1833,-5.185,-5.185,-5.1884,-5.1884,-5.1922,-5.1883,-5.1893,-5.193,-5.1931,-5.1991,-5.1924,-5.1971,-5.1973,-5.1965,-5.2108,-5.2131,-5.2234,-5.2062,-5.2065,-5.2067,0,-5.1756,-5.1783,-5.1872,-5.1887,-5.1903,-5.1943,-5.1974,-5.2007,-5.2026,-5.2024,-5.2046,-5.2026,-5.2078,-5.2027,-5.2099,-5.2053,-5.2073,-5.2077,-5.2081,-5.2082,-5.2023,-5.2112,-5.2267,-5.2281,-5.2089,-5.2087,-5.2085,0,-5.185,-5.191,-5.197,-5.1983,-5.2002,-5.2032,-5.2041,-5.2058,-5.208,-5.2108,-5.2122,-5.2156,-5.2173,-5.2201,-5.2191,-5.2154,-5.2265,-5.2213,-5.2264,-5.2265,-5.2286,-5.2284,-5.2444,-5.2303,-5.2303,-5.2303,-5.2303,0,-5.1966,-5.2022,-5.2013,-5.205,-5.2112,-5.2098,-5.2159,-5.2165,-5.2181,-5.2219,-5.2194,-5.2231,-5.2217,-5.2254,-5.2247,-5.2308,-5.2317,-5.2316,-5.2313,-5.2317,-5.2317,-5.2327,-5.2319,-5.2307,-5.2306,-5.2305,-5.2305,0,-5.208,-5.2077,-5.2141,-5.2155,-5.216,-5.2205,-5.2217,-5.2253,-5.2253,-5.2302,-5.2313,-5.2313,-5.2355,-5.235,-5.2396,-5.2392,-5.2467,-5.2457,-5.246,-5.2457,-5.2508,-5.2503,-5.2678,-5.27,-5.2547,-5.2549,-5.255,0,-5.2153,-5.2195,-5.2215,-5.2239,-5.225,-5.229,-5.2312,-5.2302,-5.2327,-5.2354,-5.2387,-5.2427,-5.2457,-5.2526,-5.2531,-5.2567,-5.2556,-5.2615,-5.256,-5.2563,-5.2555,-5.2551,-5.2555,-5.2624,-5.2626,-5.2628,-5.2629,0,-5.2282,-5.228,-5.2313,-5.2348,-5.2376,-5.2403,-5.2426,-5.2448,-5.244,-5.2469,-5.2512,-5.2536,-5.2585,-5.2625,-5.266,-5.267,-5.2648,-5.2647,-5.266,-5.2663,-5.2662,-5.2662,-5.2487,-5.2642,-5.264,-5.2639,-5.2639,-5.2638,-5.2377,-5.2413,-5.2433,-5.2472,-5.249,-5.2513,-5.2548,-5.2553,-5.2589,-5.2627,-5.262,-5.2668,-5.269,-5.2734,-5.2749,-5.2787,-5.2765,-5.2785,-5.279,-5.2794,-5.28,-5.2659,-5.2794,-5.2793,-5.2793,-5.2793,-5.2793,0,-5.2503,-5.2516,-5.2552,-5.2587,-5.2619,-5.2598,-5.2624,-5.2651,-5.2694,-5.2717,-5.2748,-5.2799,-5.2838,-5.2848,-5.2886,-5.2915,-5.2906,-5.2925,-5.2921,-5.2924,-5.2818,-5.2801,-5.2932,-5.2932,-5.2932,-5.2932,-5.2932,-5.2932,-5.2573,-5.2633,-5.2633,-5.2703,-5.2715,-5.2762,-5.2779,-5.2801,-5.2819,-5.2876,-5.2909,-5.2916,-5.2933,-5.2973,-5.3009,-5.3011,-5.3025,-5.3048,-5.3046,-5.2946,-5.2932,-5.2918,-5.2902,-5.3052,-5.3052,-5.3149,-5.315,-5.3151]},{"header":{"parameterUnit":"m.s-1","parameterCategory":1,"la1":30.2991,"la2":30.254,"lo1":-89.0895,"lo2":-89.0444,"dy":0.0017,"dx":0.0017,"nx":28,"ny":28,"refTime":"2025-06-02T21:00:00:Z","depth":0,"parameterNumber":3,"parameterNumberName":"V-component_of_WINDS"},"data":[0,0,0,0,0,0,0,0,0,0,0,0,0,0,0,0,0,0,0,0,0,0,0,0,0,0,0,0,0,0,0,0,0,0,0,0,0,0,0,0,0,0,0,0,0,0,0,0,0,0,0,0,0,0,0,0,0,0,2.8225,2.8225,0,2.8301,2.8301,2.8302,2.839,2.8392,2.8393,2.8394,2.8468,2.8468,2.8469,0,0,0,0,0,0,0,0,0,0,0,0,0,2.8153,2.8154,2.8225,2.8226,2.8227,2.83,2.8301,2.8302,2.839,2.8392,2.8394,2.8395,2.8467,2.8468,2.8469,0,0,0,0,0,0,0,0,0,0,0,0,0,2.8202,2.8154,2.8224,2.8279,2.8285,2.83,2.8301,2.8303,2.839,2.8392,2.8394,2.8396,2.8467,2.8468,2.8469,2.8435,0,0,2.8472,2.8473,0,0,0,0,0,0,0,0,2.8199,2.8204,2.827,2.8276,2.8282,2.8338,2.8303,2.8347,2.8389,2.835,2.8395,2.8397,2.8423,2.8427,2.8437,2.8438,2.8441,2.8472,2.8473,2.8473,2.8474,0,0,0,0,0,0,0,2.8195,2.8201,2.8255,2.8271,2.8278,2.8299,2.8308,2.8312,2.8374,2.8354,2.836,2.8368,2.8426,2.8436,2.8439,2.8443,2.8472,2.8473,2.8474,2.8474,2.8421,2.8419,0,0,0,0,0,0,2.8184,2.8198,2.8252,2.8257,2.8245,2.8299,2.8309,2.8318,2.8374,2.8385,2.8366,2.8372,2.8433,2.8438,2.8442,2.8407,2.8473,2.8474,2.8475,2.8423,2.8421,2.8418,0,0,0,0,0,0,2.8182,2.8188,2.8249,2.8229,2.8239,2.8298,2.8307,2.8318,2.8328,2.8384,2.8395,2.8365,2.8435,2.8441,2.8437,2.8411,2.8475,2.8476,2.8425,2.8422,2.8419,2.8335,0,0,0,0,0,0,2.818,2.8187,2.8175,2.8228,2.8239,2.8243,2.8306,2.8318,2.833,2.8338,2.8386,2.8395,2.8437,2.8435,2.8438,2.8413,2.8477,2.8428,2.8424,2.842,2.834,2.8329,2.832,0,0,0,0,0,2.8177,2.8147,2.8174,2.818,2.8226,2.8241,2.8247,2.8297,2.8328,2.8316,2.8352,2.8394,2.8413,2.8434,2.8438,2.8413,2.843,2.8425,2.8421,2.8345,2.8331,2.832,0,0,0,0,0,0,2.8087,2.8155,2.8186,2.8172,2.82,2.8256,2.8243,2.8281,2.83,2.8307,2.8366,2.8376,2.8365,2.8389,2.841,2.8384,2.8428,2.8424,2.8368,2.8356,2.8346,2.834,2.8477,0,0,0,0,0,2.8066,2.8074,2.8132,2.8114,2.8127,2.8182,2.8191,2.8227,2.8258,2.827,2.8306,2.8333,2.8346,2.8352,2.8367,2.8344,2.8356,2.833,2.8319,2.8311,2.8306,2.8297,2.8286,2.8403,2.8403,2.8404,0,0,2.8021,2.806,2.806,2.8097,2.8124,2.813,2.8192,2.8195,2.82,2.827,2.8269,2.8296,2.8331,2.8317,2.8313,2.8337,2.8277,2.8305,2.8298,2.8298,2.8291,2.828,2.827,2.84,2.8401,2.8401,0,0,2.7944,2.7974,2.7963,2.7989,2.8028,2.8066,2.8063,2.8113,2.8134,2.8135,2.8188,2.8194,2.8214,2.8237,2.8251,2.8185,2.8223,2.8187,2.8134,2.8124,2.8115,2.8107,2.8083,2.8074,2.8183,2.8183,2.8183,0,2.7883,2.7896,2.7952,2.7953,2.7968,2.8034,2.8023,2.8045,2.8086,2.8094,2.812,2.8148,2.8176,2.817,2.8154,2.8163,2.8162,2.8182,2.8112,2.8105,2.8098,2.8076,2.8067,2.8178,2.8179,2.8179,2.818,0,2.782,2.7827,2.7814,2.7855,2.7868,2.7862,2.7917,2.7924,2.7959,2.7993,2.7993,2.8029,2.8053,2.8054,2.8088,2.8053,2.8066,2.8101,2.8147,2.8081,2.8062,2.8054,2.8172,2.8173,2.8175,2.8176,0,0,2.7686,2.776,2.7754,2.7774,2.7823,2.783,2.7827,2.7852,2.7857,2.7884,2.7883,2.79,2.7933,2.7949,2.7986,2.7978,2.7923,2.8014,2.8016,2.7996,2.7887,2.786,2.785,2.795,2.7949,2.7948,2.7884,0,2.7617,2.7619,2.7671,2.7658,2.7666,2.773,2.7728,2.7757,2.779,2.78,2.7836,2.7847,2.789,2.79,2.7895,2.7931,2.7902,2.7936,2.7949,2.7949,2.7938,2.7839,2.7811,2.7749,2.7877,2.7876,2.7875,0,2.7537,2.7561,2.755,2.7601,2.7607,2.7604,2.7632,2.7642,2.7677,2.7701,2.772,2.7763,2.7764,2.7807,2.7809,2.7832,2.784,2.7859,2.7858,2.786,2.7907,2.7839,2.7731,2.7721,2.7863,2.7864,2.7865,0,2.7441,2.7471,2.7468,2.7483,2.7543,2.754,2.7564,2.7602,2.7614,2.7638,2.7646,2.7669,2.7681,2.7697,2.7745,2.7773,2.7742,2.7789,2.7761,2.776,2.7751,2.7751,2.7642,2.7757,2.7757,2.7757,2.7758,0,2.7359,2.7349,2.7426,2.7424,2.7415,2.7474,2.7464,2.7494,2.7527,2.7532,2.7588,2.7591,2.7655,2.7665,2.7702,2.7698,2.7703,2.7722,2.7732,2.7717,2.7714,2.7723,2.7728,2.7755,2.7755,2.7756,2.7756,0,2.7249,2.73,2.7302,2.7359,2.7374,2.7364,2.7413,2.7414,2.745,2.7455,2.746,2.7517,2.7532,2.7582,2.7608,2.7633,2.7618,2.7637,2.7606,2.7613,2.7582,2.7584,2.7474,2.7463,2.7585,2.7583,2.7582,0,2.7193,2.7188,2.7245,2.7253,2.7276,2.7288,2.7302,2.736,2.7371,2.7412,2.7407,2.7427,2.7446,2.7466,2.7509,2.753,2.755,2.751,2.7553,2.7539,2.7549,2.7549,2.7549,2.75,2.7499,2.7498,2.7496,0,2.7088,2.7114,2.7132,2.7159,2.7174,2.7198,2.7224,2.7227,2.7292,2.7302,2.7319,2.7334,2.7363,2.7381,2.741,2.7434,2.7475,2.7483,2.7478,2.7462,2.7444,2.7453,2.758,2.7485,2.7486,2.7487,2.7487,2.7488,2.7004,2.7002,2.7043,2.7062,2.7088,2.7112,2.7116,2.7154,2.717,2.7199,2.7232,2.7245,2.7281,2.7324,2.7345,2.7356,2.7378,2.737,2.7368,2.7365,2.7358,2.7443,2.7361,2.7361,2.7362,2.7362,2.7362,0,2.6902,2.6932,2.6949,2.6985,2.7,2.704,2.7072,2.7081,2.7092,2.7123,2.7142,2.7161,2.718,2.7225,2.7248,2.7248,2.7268,2.7252,2.7252,2.7257,2.7336,2.7339,2.7236,2.7236,2.7236,2.7236,2.7236,2.7236,2.6851,2.6851,2.6882,2.6896,2.6926,2.694,2.6955,2.6977,2.7003,2.7023,2.704,2.707,2.7106,2.7133,2.7152,2.7165,2.717,2.7148,2.7167,2.724,2.7252,2.7263,2.7266,2.7149,2.7149,2.7087,2.7087,2.7086]}]]